| time (UTC) | temp F | wind direction | speed MPH | gust MPH | rain 1hr in | rain 24hr in | rain mn in | humidity % | barometer mb |
| 20260505183048 | 59 | 0 | 0.0 | 5.0 | 0.00 | 0.24 | 0.23 | 72 | 1012.3 |
| 20260505181535 | 58 | 0 | 0.0 | 4.0 | 0.00 | 0.24 | 0.23 | 74 | 1012.4 |
| 20260505180040 | 57 | 153 | 0.0 | 3.0 | 0.00 | 0.24 | 0.23 | 79 | 1012.2 |
| 20260505174537 | 55 | 0 | 1.0 | 4.0 | 0.00 | 0.24 | 0.23 | 83 | 1012.2 |
| 20260505173038 | 53 | 0 | 0.0 | 3.0 | 0.00 | 0.24 | 0.23 | 89 | 1012.1 |
| 20260505171537 | 52 | 0 | 0.0 | 2.0 | 0.00 | 0.24 | 0.23 | 91 | 1012.1 |
| 20260505170038 | 51 | 0 | 0.0 | 1.0 | 0.00 | 0.24 | 0.23 | 92 | 1012.0 |
| 20260505164553 | 51 | 0 | 0.0 | 2.0 | 0.00 | 0.24 | 0.23 | 92 | 1011.9 |
| 20260505163039 | 51 | 0 | 0.0 | 2.0 | 0.00 | 0.24 | 0.23 | 93 | 1011.7 |
| 20260505161549 | 51 | 0 | 0.0 | 3.0 | 0.00 | 0.24 | 0.23 | 94 | 1011.7 |
| 20260505153036 | 49 | 0 | 0.0 | 2.0 | 0.00 | 0.24 | 0.23 | 93 | 1011.2 |
| 20260505151538 | 49 | 0 | 0.0 | 0.0 | 0.00 | 0.24 | 0.23 | 94 | 1011.2 |
| 20260505124545 | 48 | 128 | 1.0 | 3.0 | 0.06 | 0.22 | 0.21 | 92 | 1009.9 |
| 20260505123038 | 48 | 136 | 1.0 | 5.0 | 0.03 | 0.19 | 0.18 | 91 | 1009.8 |
| 20260505121539 | 48 | 138 | 0.0 | 2.0 | 0.01 | 0.17 | 0.16 | 91 | 1009.6 |
| 20260505120048 | 48 | 0 | 0.0 | 0.0 | 0.00 | 0.16 | 0.15 | 91 | 1009.2 |
| 20260505114536 | 48 | 0 | 0.0 | 0.0 | 0.00 | 0.16 | 0.15 | 91 | 1009.0 |
| 20260505113038 | 48 | 0 | 0.0 | 2.0 | 0.00 | 0.16 | 0.15 | 91 | 1008.8 |
| 20260505111538 | 47 | 0 | 0.0 | 2.0 | 0.00 | 0.16 | 0.15 | 91 | 1008.8 |
| 20260505101539 | 48 | 0 | 0.0 | 1.0 | 0.04 | 0.16 | 0.15 | 90 | 1008.7 |
| 20260505100039 | 48 | 245 | 0.0 | 5.0 | 0.05 | 0.16 | 0.15 | 90 | 1008.8 |
| 20260505094539 | 48 | 278 | 2.0 | 8.0 | 0.06 | 0.16 | 0.15 | 90 | 1008.7 |
| 20260505093038 | 48 | 157 | 0.0 | 3.0 | 0.03 | 0.13 | 0.12 | 90 | 1009.1 |
| 20260505091540 | 48 | 70 | 1.0 | 7.0 | 0.03 | 0.12 | 0.11 | 89 | 1009.0 |
| 20260505090034 | 49 | 266 | 1.0 | 6.0 | 0.05 | 0.11 | 0.10 | 89 | 1009.0 |
| 20260505084547 | 48 | 299 | 0.0 | 1.0 | 0.07 | 0.10 | 0.09 | 87 | 1008.7 |
| 20260505083046 | 48 | 280 | 0.0 | 3.0 | 0.09 | 0.10 | 0.09 | 86 | 1008.7 |
| 20260505081543 | 49 | 0 | 0.0 | 3.0 | 0.08 | 0.09 | 0.08 | 84 | 1009.2 |
| 20260505080036 | 50 | 0 | 0.0 | 2.0 | 0.05 | 0.06 | 0.05 | 82 | 1009.6 |
| 20260505074539 | 50 | 0 | 0.0 | 1.0 | 0.02 | 0.03 | 0.02 | 80 | 1009.7 |
| 20260505073039 | 50 | 0 | 0.0 | 0.0 | 0.00 | 0.01 | 0.00 | 78 | 1009.7 |
| 20260505071537 | 51 | 0 | 0.0 | 1.0 | 0.00 | 0.01 | 0.00 | 77 | 1009.5 |
| 20260505070044 | 51 | 0 | 0.0 | 3.0 | 0.00 | 0.01 | 0.00 | 76 | 1009.0 |
| 20260505064536 | 51 | 0 | 0.0 | 4.0 | 0.00 | 0.01 | 0.01 | 75 | 1008.9 |
| 20260505063039 | 51 | 0 | 0.0 | 4.0 | 0.00 | 0.01 | 0.01 | 74 | 1009.1 |
| 20260505061537 | 51 | 0 | 0.0 | 3.0 | 0.00 | 0.01 | 0.01 | 74 | 1009.0 |
| 20260505060040 | 51 | 0 | 0.0 | 3.0 | 0.00 | 0.01 | 0.01 | 72 | 1009.2 |
| 20260505054538 | 51 | 96 | 0.0 | 3.0 | 0.00 | 0.01 | 0.01 | 72 | 1008.9 |
| 20260505053059 | 51 | 0 | 0.0 | 7.0 | 0.00 | 0.01 | 0.01 | 72 | 1008.6 |
| 20260505051538 | 52 | 297 | 2.0 | 7.0 | 0.00 | 0.01 | 0.01 | 71 | 1008.7 |
| 20260505041543 | 52 | 290 | 3.0 | 8.0 | 0.00 | 0.01 | 0.01 | 72 | 1008.6 |
| 20260505040038 | 52 | 0 | 1.0 | 5.0 | 0.00 | 0.01 | 0.01 | 73 | 1008.6 |
| 20260505034538 | 53 | 311 | 1.0 | 6.0 | 0.00 | 0.01 | 0.01 | 72 | 1008.4 |
| 20260505033045 | 53 | 262 | 0.0 | 6.0 | 0.00 | 0.01 | 0.01 | 72 | 1008.6 |
| 20260505031536 | 53 | 323 | 1.0 | 7.0 | 0.00 | 0.01 | 0.01 | 71 | 1008.5 |
| 20260505030038 | 53 | 0 | 1.0 | 9.0 | 0.00 | 0.01 | 0.01 | 69 | 1007.9 |
| 20260505024536 | 54 | 0 | 1.0 | 7.0 | 0.00 | 0.01 | 0.01 | 68 | 1008.2 |
| 20260505023035 | 54 | 262 | 3.0 | 10.0 | 0.00 | 0.01 | 0.01 | 68 | 1008.5 |
| 20260505021537 | 55 | 286 | 3.0 | 12.0 | 0.00 | 0.01 | 0.01 | 68 | 1008.3 |
| 20260505020037 | 55 | 276 | 4.0 | 9.0 | 0.00 | 0.01 | 0.01 | 67 | 1008.1 |
| 20260505014537 | 56 | 354 | 2.0 | 8.0 | 0.00 | 0.01 | 0.01 | 66 | 1008.0 |
| 20260505013037 | 56 | 117 | 3.0 | 12.0 | 0.00 | 0.01 | 0.01 | 61 | 1008.0 |
| 20260505011554 | 57 | 288 | 3.0 | 9.0 | 0.00 | 0.01 | 0.01 | 59 | 1007.6 |
| 20260505010039 | 58 | 0 | 3.0 | 10.0 | 0.00 | 0.01 | 0.01 | 58 | 1007.5 |
| 20260505004537 | 58 | 0 | 1.0 | 4.0 | 0.00 | 0.01 | 0.01 | 56 | 1008.1 |
| 20260505003037 | 58 | 234 | 0.0 | 4.0 | 0.00 | 0.01 | 0.01 | 59 | 1007.5 |
| 20260505001538 | 58 | 0 | 0.0 | 3.0 | 0.00 | 0.01 | 0.01 | 59 | 1008.2 |
| 20260505000043 | 58 | 148 | 2.0 | 5.0 | 0.00 | 0.01 | 0.01 | 60 | 1008.3 |
| 20260504234536 | 57 | 169 | 4.0 | 9.0 | 0.00 | 0.01 | 0.01 | 63 | 1008.1 |
| 20260504233034 | 57 | 0 | 3.0 | 6.0 | 0.00 | 0.01 | 0.01 | 64 | 1008.2 |
| 20260504231538 | 56 | 140 | 3.0 | 11.0 | 0.00 | 0.01 | 0.01 | 65 | 1008.4 |
| 20260504230038 | 58 | 133 | 4.0 | 11.0 | 0.00 | 0.01 | 0.01 | 61 | 1008.5 |
| 20260504224541 | 61 | 131 | 7.0 | 13.0 | 0.00 | 0.01 | 0.01 | 54 | 1008.2 |
| 20260504223037 | 66 | 126 | 0.0 | 6.0 | 0.00 | 0.01 | 0.01 | 47 | 1008.0 |
| 20260504221539 | 66 | 326 | 2.0 | 10.0 | 0.00 | 0.01 | 0.01 | 49 | 1007.5 |
| 20260504220035 | 65 | 268 | 1.0 | 10.0 | 0.01 | 0.01 | 0.01 | 50 | 1007.6 |
| 20260504214538 | 64 | 295 | 3.0 | 8.0 | 0.01 | 0.01 | 0.01 | 51 | 1007.5 |
| 20260504213038 | 63 | 201 | 3.0 | 13.0 | 0.01 | 0.01 | 0.01 | 51 | 1007.6 |
| 20260504211536 | 62 | 214 | 5.0 | 14.0 | 0.01 | 0.01 | 0.01 | 55 | 1007.4 |
| 20260504210037 | 59 | 274 | 3.0 | 8.0 | 0.00 | 0.00 | 0.00 | 64 | 1007.6 |
| 20260504204532 | 59 | 291 | 2.0 | 9.0 | 0.00 | 0.00 | 0.00 | 59 | 1008.2 |
| 20260504203046 | 60 | 338 | 1.0 | 5.0 | 0.00 | 0.00 | 0.00 | 56 | 1008.4 |
| 20260504201538 | 59 | 282 | 0.0 | 3.0 | 0.00 | 0.00 | 0.00 | 59 | 1008.6 |
| 20260504200037 | 59 | 0 | 0.0 | 3.0 | 0.00 | 0.00 | 0.00 | 63 | 1008.7 |
| 20260504194537 | 57 | 0 | 0.0 | 2.0 | 0.00 | 0.00 | 0.00 | 66 | 1009.0 |
| 20260504193038 | 57 | 264 | 1.0 | 6.0 | 0.00 | 0.00 | 0.00 | 63 | 1009.1 |
| 20260504191549 | 58 | 255 | 0.0 | 4.0 | 0.00 | 0.00 | 0.00 | 64 | 1009.0 |
| 20260504190041 | 58 | 198 | 0.0 | 6.0 | 0.00 | 0.00 | 0.00 | 59 | 1009.5 |
| 20260504184539 | 59 | 103 | 1.0 | 7.0 | 0.00 | 0.00 | 0.00 | 59 | 1009.7 |